| time (UTC) | temp F | wind direction | speed MPH | gust MPH | rain 1hr in | rain 24hr in | rain mn in | humidity % | barometer mb |
| 20260508045722 | 60 | 235 | 11.0 | 15.0 | 0.00 | 0.00 | 0.00 | 67 | |
| 20260508045224 | 60 | 233 | 14.0 | 14.0 | 0.00 | 0.00 | 0.00 | 69 | |
| 20260508044727 | 60 | 229 | 12.0 | 12.0 | 0.00 | 0.00 | 0.00 | 68 | |
| 20260508044229 | 60 | 221 | 12.0 | 11.0 | 0.00 | 0.00 | 0.00 | 69 | |
| 20260508043728 | 60 | 242 | 13.0 | 13.0 | 0.00 | 0.00 | 0.00 | 67 | |
| 20260508043230 | 60 | 238 | 10.0 | 8.0 | 0.00 | 0.00 | 0.00 | 67 | |
| 20260508042733 | 60 | 243 | 13.0 | 13.0 | 0.00 | 0.00 | 0.00 | 66 | |
| 20260508042235 | 60 | 245 | 11.0 | 10.0 | 0.00 | 0.00 | 0.00 | 66 | |
| 20260508041738 | 60 | 200 | 14.0 | 13.0 | 0.00 | 0.00 | 0.00 | 65 | |
| 20260508041242 | 60 | 217 | 13.0 | 0.0 | 0.00 | 0.00 | 0.00 | 64 | |
| 20260508041240 | 60 | 217 | 13.0 | 12.0 | 0.00 | 0.00 | 0.00 | 64 | |
| 20260508040739 | 61 | 246 | 15.0 | 14.0 | 0.00 | 0.00 | 0.00 | 64 | |
| 20260508040243 | 61 | 229 | 10.0 | 10.0 | 0.00 | 0.00 | 0.00 | 63 | |
| 20260508035744 | 61 | 246 | 13.0 | 9.0 | 0.00 | 0.00 | 0.00 | 62 | |
| 20260508035246 | 61 | 238 | 14.0 | 12.0 | 0.00 | 0.00 | 0.00 | 61 | |
| 20260508034749 | 61 | 229 | 13.0 | 17.0 | 0.00 | 0.00 | 0.00 | 59 | |
| 20260508034251 | 62 | 212 | 12.0 | 11.0 | 0.00 | 0.00 | 0.00 | 58 | |
| 20260508033749 | 62 | 221 | 13.0 | 16.0 | 0.00 | 0.00 | 0.00 | 57 | |
| 20260508033252 | 62 | 233 | 13.0 | 12.0 | 0.00 | 0.00 | 0.00 | 56 | |
| 20260508032754 | 62 | 222 | 17.0 | 16.0 | 0.00 | 0.00 | 0.00 | 56 | |
| 20260508032256 | 62 | 228 | 13.0 | 15.0 | 0.00 | 0.00 | 0.00 | 54 | |
| 20260508031759 | 62 | 233 | 10.0 | 12.0 | 0.00 | 0.00 | 0.00 | 53 | |
| 20260508031301 | 63 | 228 | 8.0 | 12.0 | 0.00 | 0.00 | 0.00 | 52 | |
| 20260508030800 | 63 | 225 | 14.0 | 13.0 | 0.00 | 0.00 | 0.00 | 52 | |
| 20260508030302 | 63 | 217 | 11.0 | 12.0 | 0.00 | 0.00 | 0.00 | 50 | |
| 20260508025805 | 63 | 236 | 13.0 | 12.0 | 0.00 | 0.00 | 0.00 | 49 | |
| 20260508025307 | 64 | 219 | 16.0 | 12.0 | 0.00 | 0.00 | 0.00 | 48 | |
| 20260508024809 | 64 | 225 | 12.0 | 13.0 | 0.00 | 0.00 | 0.00 | 47 | |
| 20260508024311 | 65 | 218 | 11.0 | 15.0 | 0.00 | 0.00 | 0.00 | 46 | |
| 20260508023810 | 65 | 231 | 12.0 | 15.0 | 0.00 | 0.00 | 0.00 | 45 | |
| 20260508022815 | 66 | 233 | 15.0 | 9.0 | 0.00 | 0.00 | 0.00 | 41 | |
| 20260508022317 | 67 | 221 | 13.0 | 10.0 | 0.00 | 0.00 | 0.00 | 40 | |
| 20260508021820 | 67 | 240 | 14.0 | 13.0 | 0.00 | 0.00 | 0.00 | 40 | |
| 20260508021322 | 68 | 222 | 10.0 | 10.0 | 0.00 | 0.00 | 0.00 | 38 | |
| 20260508020821 | 68 | 203 | 10.0 | 9.0 | 0.00 | 0.00 | 0.00 | 37 | |
| 20260508020323 | 69 | 225 | 12.0 | 10.0 | 0.00 | 0.00 | 0.00 | 36 | |
| 20260508015826 | 69 | 219 | 9.0 | 14.0 | 0.00 | 0.00 | 0.00 | 35 | |
| 20260508015328 | 70 | 239 | 10.0 | 8.0 | 0.00 | 0.00 | 0.00 | 34 | |
| 20260508014830 | 71 | 229 | 6.0 | 12.0 | 0.00 | 0.00 | 0.00 | 32 | |
| 20260508014332 | 71 | 248 | 8.0 | 4.0 | 0.00 | 0.00 | 0.00 | 32 | |
| 20260508013832 | 71 | 233 | 12.0 | 12.0 | 0.00 | 0.00 | 0.00 | 31 | |
| 20260508013334 | 72 | 217 | 10.0 | 5.0 | 0.00 | 0.00 | 0.00 | 29 | |
| 20260508012836 | 72 | 201 | 11.0 | 8.0 | 0.00 | 0.00 | 0.00 | 29 | |
| 20260508012338 | 73 | 240 | 12.0 | 9.0 | 0.00 | 0.00 | 0.00 | 28 | |
| 20260508011841 | 73 | 195 | 13.0 | 4.0 | 0.00 | 0.00 | 0.00 | 27 | |
| 20260508011343 | 74 | 238 | 13.0 | 10.0 | 0.00 | 0.00 | 0.00 | 26 | |
| 20260508010842 | 75 | 228 | 10.0 | 15.0 | 0.00 | 0.00 | 0.00 | 24 | |
| 20260508010344 | 75 | 218 | 12.0 | 20.0 | 0.00 | 0.00 | 0.00 | 22 | |
| 20260508005847 | 76 | 256 | 10.0 | 12.0 | 0.00 | 0.00 | 0.00 | 21 | |
| 20260508005349 | 76 | 215 | 11.0 | 5.0 | 0.00 | 0.00 | 0.00 | 20 | |
| 20260508004851 | 77 | 233 | 14.0 | 9.0 | 0.00 | 0.00 | 0.00 | 19 | |
| 20260508004353 | 77 | 225 | 11.0 | 15.0 | 0.00 | 0.00 | 0.00 | 18 | |
| 20260508003852 | 78 | 233 | 15.0 | 10.0 | 0.00 | 0.00 | 0.00 | 17 | |
| 20260508003355 | 78 | 228 | 15.0 | 16.0 | 0.00 | 0.00 | 0.00 | 16 | |
| 20260508002857 | 78 | 236 | 6.0 | 10.0 | 0.00 | 0.00 | 0.00 | 15 | |
| 20260508002359 | 79 | 172 | 10.0 | 0.0 | 0.00 | 0.00 | 0.00 | 15 | |
| 20260508001902 | 79 | 243 | 14.0 | 4.0 | 0.00 | 0.00 | 0.00 | 14 | |
| 20260508001404 | 80 | 210 | 10.0 | 9.0 | 0.00 | 0.00 | 0.00 | 13 | |
| 20260508000903 | 80 | 212 | 10.0 | 6.0 | 0.00 | 0.00 | 0.00 | 13 | |
| 20260508000405 | 80 | 204 | 8.0 | 12.0 | 0.00 | 0.00 | 0.00 | 12 | |
| 20260507235907 | 80 | 208 | 12.0 | 7.0 | 0.00 | 0.00 | 0.00 | 11 | |
| 20260507235410 | 81 | 214 | 8.0 | 13.0 | 0.00 | 0.00 | 0.00 | 11 | |
| 20260507234912 | 81 | 259 | 11.0 | 5.0 | 0.00 | 0.00 | 0.00 | 11 | |
| 20260507234414 | 81 | 246 | 8.0 | 0.0 | 0.00 | 0.00 | 0.00 | 11 | |
| 20260507233913 | 81 | 236 | 0.0 | 10.0 | 0.00 | 0.00 | 0.00 | 11 | |
| 20260507233416 | 81 | 224 | 14.0 | 15.0 | 0.00 | 0.00 | 0.00 | 9 | |
| 20260507232918 | 82 | 228 | 9.0 | 12.0 | 0.00 | 0.00 | 0.00 | 9 | |
| 20260507232420 | 82 | 229 | 10.0 | 19.0 | 0.00 | 0.00 | 0.00 | 7 | |
| 20260507231922 | 82 | 238 | 9.0 | 14.0 | 0.00 | 0.00 | 0.00 | 8 | |
| 20260507231425 | 83 | 221 | 7.0 | 6.0 | 0.00 | 0.00 | 0.00 | 7 | |
| 20260507230924 | 82 | 231 | 8.0 | 0.0 | 0.00 | 0.00 | 0.00 | 7 | |
| 20260507230426 | 83 | 187 | 7.0 | 0.0 | 0.00 | 0.00 | 0.00 | 6 | |
| 20260507225928 | 83 | 219 | 15.0 | 12.0 | 0.00 | 0.00 | 0.00 | 6 | |
| 20260507225431 | 84 | 208 | 9.0 | 3.0 | 0.00 | 0.00 | 0.00 | 6 | |
| 20260507224933 | 84 | 240 | 3.0 | 10.0 | 0.00 | 0.00 | 0.00 | 6 | |
| 20260507224436 | 85 | 222 | 3.0 | 7.0 | 0.00 | 0.00 | 0.00 | 6 | |
| 20260507223934 | 85 | 245 | 7.0 | 12.0 | 0.00 | 0.00 | 0.00 | 6 | |
| 20260507223437 | 85 | 242 | 4.0 | 0.0 | 0.00 | 0.00 | 0.00 | 6 | |
| 20260507222939 | 85 | 242 | 8.0 | 0.0 | 0.00 | 0.00 | 0.00 | 5 | |
| 20260507222441 | 85 | 226 | 0.0 | 0.0 | 0.00 | 0.00 | 0.00 | 5 | |
| 20260507221446 | 86 | 218 | 3.0 | 5.0 | 0.00 | 0.00 | 0.00 | 6 | |
| 20260507220945 | 85 | 222 | 3.0 | 10.0 | 0.00 | 0.00 | 0.00 | 5 | |
| 20260507220447 | 85 | 233 | 0.0 | 0.0 | 0.00 | 0.00 | 0.00 | 5 | |
| 20260507215949 | 85 | 249 | 9.0 | 4.0 | 0.00 | 0.00 | 0.00 | 5 | |
| 20260507215452 | 86 | 239 | 12.0 | 9.0 | 0.00 | 0.00 | 0.00 | 5 | |
| 20260507214954 | 86 | 233 | 6.0 | 0.0 | 0.00 | 0.00 | 0.00 | 5 | |
| 20260507214456 | 86 | 236 | 8.0 | 17.0 | 0.00 | 0.00 | 0.00 | 5 | |
| 20260507213955 | 86 | 205 | 5.0 | 0.0 | 0.00 | 0.00 | 0.00 | 4 | |
| 20260507213458 | 86 | 221 | 4.0 | 0.0 | 0.00 | 0.00 | 0.00 | 4 | |
| 20260507213000 | 86 | 245 | 0.0 | 0.0 | 0.00 | 0.00 | 0.00 | 4 | |
| 20260507212502 | 86 | 222 | 3.0 | 5.0 | 0.00 | 0.00 | 0.00 | 4 | |
| 20260507212004 | 86 | 203 | 11.0 | 0.0 | 0.00 | 0.00 | 0.00 | 4 | |
| 20260507211507 | 86 | 333 | 3.0 | 7.0 | 0.00 | 0.00 | 0.00 | 2 | |
| 20260507210509 | 86 | 13 | 0.0 | 0.0 | 0.00 | 0.00 | 0.00 | 3 | |
| 20260507210010 | 86 | 13 | 0.0 | 0.0 | 0.00 | 0.00 | 0.00 | 3 | |
| 20260507205513 | 85 | 13 | 0.0 | 0.0 | 0.00 | 0.00 | 0.00 | 3 | |
| 20260507204604 | 85 | 13 | 0.0 | 0.0 | 0.00 | 0.00 | 0.00 | 3 | |
| 20260507204517 | 85 | 13 | 0.0 | 0.0 | 0.00 | 0.00 | 0.00 | 3 | |
| 20260507204016 | 85 | 13 | 0.0 | 0.0 | 0.00 | 0.00 | 0.00 | 3 | |
| 20260507203519 | 85 | 13 | 0.0 | 0.0 | 0.00 | 0.00 | 0.00 | 3 | |
| 20260507203021 | 85 | 13 | 0.0 | 0.0 | 0.00 | 0.00 | 0.00 | 3 | |
| 20260507202523 | 84 | 13 | 0.0 | 0.0 | 0.00 | 0.00 | 0.00 | 3 | |
| 20260507202026 | 84 | 13 | 0.0 | 0.0 | 0.00 | 0.00 | 0.00 | 3 | |
| 20260507201529 | 84 | 13 | 0.0 | 0.0 | 0.00 | 0.00 | 0.00 | 3 | |
| 20260507201027 | 84 | 13 | 0.0 | 0.0 | 0.00 | 0.00 | 0.00 | 3 | |
| 20260507200530 | 84 | 13 | 0.0 | 0.0 | 0.00 | 0.00 | 0.00 | 3 | |
| 20260507200032 | 84 | 13 | 0.0 | 0.0 | 0.00 | 0.00 | 0.00 | 3 | |
| 20260507195534 | 84 | 13 | 0.0 | 0.0 | 0.00 | 0.00 | 0.00 | 3 | |
| 20260507195036 | 84 | 13 | 0.0 | 0.0 | 0.00 | 0.00 | 0.00 | 3 | |
| 20260507194539 | 84 | 13 | 0.0 | 0.0 | 0.00 | 0.00 | 0.00 | 3 | |
| 20260507194038 | 84 | 13 | 0.0 | 0.0 | 0.00 | 0.00 | 0.00 | 3 | |
| 20260507193540 | 84 | 13 | 0.0 | 0.0 | 0.00 | 0.00 | 0.00 | 3 | |
| 20260507193042 | 84 | 13 | 0.0 | 0.0 | 0.00 | 0.00 | 0.00 | 3 | |
| 20260507192545 | 84 | 13 | 0.0 | 0.0 | 0.00 | 0.00 | 0.00 | 3 | |
| 20260507192047 | 84 | 13 | 0.0 | 0.0 | 0.00 | 0.00 | 0.00 | 4 | |
| 20260507191549 | 84 | 13 | 0.0 | 0.0 | 0.00 | 0.00 | 0.00 | 4 | |
| 20260507191049 | 84 | 13 | 0.0 | 0.0 | 0.00 | 0.00 | 0.00 | 4 | |
| 20260507190551 | 84 | 13 | 0.0 | 0.0 | 0.00 | 0.00 | 0.00 | 4 | |
| 20260507190053 | 84 | 13 | 0.0 | 0.0 | 0.00 | 0.00 | 0.00 | 4 | |
| 20260507185555 | 83 | 13 | 0.0 | 0.0 | 0.00 | 0.00 | 0.00 | 4 | |
| 20260507185058 | 83 | 13 | 0.0 | 0.0 | 0.00 | 0.00 | 0.00 | 4 | |
| 20260507184600 | 83 | 13 | 0.0 | 0.0 | 0.00 | 0.00 | 0.00 | 4 | |
| 20260507184059 | 83 | 13 | 0.0 | 0.0 | 0.00 | 0.00 | 0.00 | 4 | |
| 20260507183602 | 82 | 13 | 0.0 | 0.0 | 0.00 | 0.00 | 0.00 | 4 | |
| 20260507183104 | 82 | 13 | 0.0 | 0.0 | 0.00 | 0.00 | 0.00 | 4 | |
| 20260507182606 | 82 | 13 | 0.0 | 0.0 | 0.00 | 0.00 | 0.00 | 4 | |
| 20260507181611 | 82 | 13 | 0.0 | 0.0 | 0.00 | 0.00 | 0.00 | 4 | |
| 20260507181110 | 81 | 13 | 0.0 | 0.0 | 0.00 | 0.00 | 0.00 | 4 | |
| 20260507180612 | 82 | 13 | 0.0 | 0.0 | 0.00 | 0.00 | 0.00 | 5 | |
| 20260507180115 | 82 | 13 | 0.0 | 0.0 | 0.00 | 0.00 | 0.00 | 5 | |
| 20260507175617 | 82 | 248 | 0.0 | 0.0 | 0.00 | 0.00 | 0.00 | 5 | |
| 20260507175119 | 82 | 248 | 0.0 | 0.0 | 0.00 | 0.00 | 0.00 | 5 | |
| 20260507174622 | 82 | 248 | 0.0 | 0.0 | 0.00 | 0.00 | 0.00 | 5 | |
| 20260507174121 | 82 | 248 | 0.0 | 0.0 | 0.00 | 0.00 | 0.00 | 5 | |
| 20260507173623 | 81 | 248 | 0.0 | 0.0 | 0.00 | 0.00 | 0.00 | 5 | |
| 20260507173126 | 81 | 248 | 0.0 | 0.0 | 0.00 | 0.00 | 0.00 | 5 | |
| 20260507172629 | 80 | 248 | 0.0 | 0.0 | 0.00 | 0.00 | 0.00 | 5 | |
| 20260507172130 | 80 | 248 | 0.0 | 0.0 | 0.00 | 0.00 | 0.00 | 5 | |
| 20260507171633 | 80 | 248 | 0.0 | 0.0 | 0.00 | 0.00 | 0.00 | 5 | |
| 20260507171132 | 80 | 248 | 0.0 | 0.0 | 0.00 | 0.00 | 0.00 | 6 | |
| 20260507170634 | 79 | 248 | 0.0 | 0.0 | 0.00 | 0.00 | 0.00 | 6 | |
| 20260507170137 | 79 | 248 | 0.0 | 0.0 | 0.00 | 0.00 | 0.00 | 6 | |
| 20260507165639 | 78 | 248 | 0.0 | 0.0 | 0.00 | 0.00 | 0.00 | 6 | |
| 20260507165141 | 78 | 248 | 0.0 | 0.0 | 0.00 | 0.00 | 0.00 | 6 | |
| 20260507164643 | 78 | 248 | 0.0 | 0.0 | 0.00 | 0.00 | 0.00 | 6 | |
| 20260507164143 | 78 | 248 | 0.0 | 0.0 | 0.00 | 0.00 | 0.00 | 6 | |
| 20260507163646 | 78 | 248 | 0.0 | 0.0 | 0.00 | 0.00 | 0.00 | 6 | |
| 20260507163147 | 77 | 248 | 0.0 | 0.0 | 0.00 | 0.00 | 0.00 | 6 | |
| 20260507162650 | 77 | 248 | 0.0 | 0.0 | 0.00 | 0.00 | 0.00 | 7 | |
| 20260507162152 | 76 | 248 | 0.0 | 0.0 | 0.00 | 0.00 | 0.00 | 7 | |
| 20260507161154 | 76 | 248 | 0.0 | 0.0 | 0.00 | 0.00 | 0.00 | 8 | |
| 20260507160656 | 75 | 248 | 0.0 | 0.0 | 0.00 | 0.00 | 0.00 | 8 | |
| 20260507160158 | 75 | 248 | 0.0 | 0.0 | 0.00 | 0.00 | 0.00 | 9 | |
| 20260507155701 | 74 | 248 | 0.0 | 0.0 | 0.00 | 0.00 | 0.00 | 9 | |
| 20260507155203 | 74 | 248 | 0.0 | 0.0 | 0.00 | 0.00 | 0.00 | 11 | |
| 20260507154706 | 73 | 248 | 0.0 | 0.0 | 0.00 | 0.00 | 0.00 | 11 | |
| 20260507154204 | 73 | 248 | 0.0 | 0.0 | 0.00 | 0.00 | 0.00 | 12 | |
| 20260507153209 | 72 | 248 | 0.0 | 0.0 | 0.00 | 0.00 | 0.00 | 13 | |
| 20260507152711 | 71 | 248 | 0.0 | 0.0 | 0.00 | 0.00 | 0.00 | 13 | |
| 20260507152214 | 71 | 248 | 0.0 | 0.0 | 0.00 | 0.00 | 0.00 | 14 | |
| 20260507151716 | 70 | 248 | 0.0 | 0.0 | 0.00 | 0.00 | 0.00 | 14 | |
| 20260507151215 | 70 | 248 | 0.0 | 0.0 | 0.00 | 0.00 | 0.00 | 15 | |
| 20260507150718 | 69 | 248 | 0.0 | 0.0 | 0.00 | 0.00 | 0.00 | 16 | |
| 20260507150035 | 68 | 248 | 0.0 | 0.0 | 0.00 | 0.00 | 0.00 | 17 | |
| 20260507145722 | 68 | 248 | 0.0 | 0.0 | 0.00 | 0.00 | 0.00 | 17 | |
| 20260507145225 | 67 | 248 | 0.0 | 0.0 | 0.00 | 0.00 | 0.00 | 18 | |
| 20260507144727 | 67 | 248 | 0.0 | 0.0 | 0.00 | 0.00 | 0.00 | 20 | |
| 20260507144226 | 66 | 248 | 0.0 | 0.0 | 0.00 | 0.00 | 0.00 | 20 | |
| 20260507143729 | 66 | 248 | 0.0 | 0.0 | 0.00 | 0.00 | 0.00 | 21 | |
| 20260507143231 | 65 | 248 | 0.0 | 0.0 | 0.00 | 0.00 | 0.00 | 22 | |
| 20260507142733 | 64 | 248 | 0.0 | 0.0 | 0.00 | 0.00 | 0.00 | 24 | |
| 20260507142236 | 64 | 248 | 0.0 | 0.0 | 0.00 | 0.00 | 0.00 | 26 | |
| 20260507141738 | 63 | 248 | 0.0 | 0.0 | 0.00 | 0.00 | 0.00 | 27 | |
| 20260507141237 | 62 | 248 | 0.0 | 0.0 | 0.00 | 0.00 | 0.00 | 28 | |
| 20260507140740 | 62 | 248 | 0.0 | 0.0 | 0.00 | 0.00 | 0.00 | 29 | |
| 20260507140242 | 61 | 248 | 0.0 | 0.0 | 0.00 | 0.00 | 0.00 | 28 | |
| 20260507135246 | 60 | 248 | 0.0 | 0.0 | 0.00 | 0.00 | 0.00 | 29 | |
| 20260507134750 | 59 | 248 | 0.0 | 0.0 | 0.00 | 0.00 | 0.00 | 28 | |
| 20260507134248 | 59 | 248 | 0.0 | 0.0 | 0.00 | 0.00 | 0.00 | 30 | |
| 20260507133750 | 59 | 248 | 0.0 | 0.0 | 0.00 | 0.00 | 0.00 | 30 | |
| 20260507133253 | 59 | 248 | 0.0 | 0.0 | 0.00 | 0.00 | 0.00 | 30 | |
| 20260507132755 | 59 | 248 | 0.0 | 0.0 | 0.00 | 0.00 | 0.00 | 30 | |
| 20260507132257 | 59 | 248 | 0.0 | 0.0 | 0.00 | 0.00 | 0.00 | 30 | |
| 20260507131800 | 59 | 248 | 0.0 | 0.0 | 0.00 | 0.00 | 0.00 | 29 | |
| 20260507131259 | 59 | 248 | 0.0 | 0.0 | 0.00 | 0.00 | 0.00 | 29 | |
| 20260507130801 | 58 | 248 | 0.0 | 0.0 | 0.00 | 0.00 | 0.00 | 30 | |
| 20260507130303 | 58 | 248 | 0.0 | 0.0 | 0.00 | 0.00 | 0.00 | 30 | |
| 20260507125806 | 58 | 248 | 0.0 | 0.0 | 0.00 | 0.00 | 0.00 | 30 | |
| 20260507125308 | 58 | 248 | 0.0 | 0.0 | 0.00 | 0.00 | 0.00 | 31 | |
| 20260507124811 | 58 | 248 | 0.0 | 0.0 | 0.00 | 0.00 | 0.00 | 31 | |
| 20260507124310 | 58 | 248 | 0.0 | 0.0 | 0.00 | 0.00 | 0.00 | 31 | |
| 20260507123812 | 59 | 248 | 0.0 | 0.0 | 0.00 | 0.00 | 0.00 | 31 | |
| 20260507123314 | 59 | 248 | 0.0 | 0.0 | 0.00 | 0.00 | 0.00 | 31 | |
| 20260507122817 | 59 | 248 | 0.0 | 0.0 | 0.00 | 0.00 | 0.00 | 31 | |
| 20260507122320 | 59 | 248 | 0.0 | 0.0 | 0.00 | 0.00 | 0.00 | ||
| 20260507121822 | 59 | 248 | 0.0 | 0.0 | 0.00 | 0.00 | 0.00 | 31 | |
| 20260507121321 | 59 | 248 | 0.0 | 0.0 | 0.00 | 0.00 | 0.00 | 31 | |
| 20260507120823 | 59 | 248 | 0.0 | 0.0 | 0.00 | 0.00 | 0.00 | 32 | |
| 20260507120325 | 58 | 248 | 0.0 | 0.0 | 0.00 | 0.00 | 0.00 | 33 | |
| 20260507115827 | 58 | 248 | 0.0 | 0.0 | 0.00 | 0.00 | 0.00 | 33 | |
| 20260507115331 | 58 | 248 | 0.0 | 0.0 | 0.00 | 0.00 | 0.00 | 33 | |
| 20260507114833 | 58 | 248 | 0.0 | 0.0 | 0.00 | 0.00 | 0.00 | 33 | |
| 20260507114331 | 58 | 248 | 0.0 | 0.0 | 0.00 | 0.00 | 0.00 | 33 | |
| 20260507113834 | 59 | 248 | 0.0 | 0.0 | 0.00 | 0.00 | 0.00 | 33 | |
| 20260507113336 | 59 | 248 | 0.0 | 0.0 | 0.00 | 0.00 | 0.00 | 33 | |
| 20260507112838 | 59 | 248 | 0.0 | 0.0 | 0.00 | 0.00 | 0.00 | 33 | |
| 20260507112429 | 59 | 248 | 0.0 | 0.0 | 0.00 | 0.00 | 0.00 | 33 | |
| 20260507112341 | 59 | 248 | 0.0 | 0.0 | 0.00 | 0.00 | 0.00 | 33 | |
| 20260507111843 | 59 | 248 | 0.0 | 0.0 | 0.00 | 0.00 | 0.00 | 33 | |
| 20260507111342 | 59 | 248 | 0.0 | 0.0 | 0.00 | 0.00 | 0.00 | 34 | |
| 20260507110844 | 59 | 248 | 0.0 | 0.0 | 0.00 | 0.00 | 0.00 | 34 | |
| 20260507110558 | 59 | 248 | 0.0 | 0.0 | 0.00 | 0.00 | 0.00 | 34 | |
| 20260507110347 | 59 | 248 | 0.0 | 0.0 | 0.00 | 0.00 | 0.00 | 34 | |
| 20260507105850 | 59 | 248 | 0.0 | 0.0 | 0.00 | 0.00 | 0.00 | 34 | |
| 20260507105351 | 59 | 248 | 0.0 | 0.0 | 0.00 | 0.00 | 0.00 | 34 | |
| 20260507104854 | 59 | 248 | 0.0 | 0.0 | 0.00 | 0.00 | 0.00 | 34 | |
| 20260507104353 | 59 | 248 | 0.0 | 0.0 | 0.00 | 0.00 | 0.00 | 35 | |
| 20260507103855 | 58 | 248 | 0.0 | 0.0 | 0.00 | 0.00 | 0.00 | 35 | |
| 20260507103358 | 58 | 248 | 0.0 | 0.0 | 0.00 | 0.00 | 0.00 | 35 | |
| 20260507102900 | 58 | 248 | 0.0 | 0.0 | 0.00 | 0.00 | 0.00 | 35 | |
| 20260507102402 | 59 | 248 | 0.0 | 0.0 | 0.00 | 0.00 | 0.00 | 35 | |
| 20260507101905 | 59 | 248 | 0.0 | 0.0 | 0.00 | 0.00 | 0.00 | 35 | |
| 20260507101404 | 59 | 248 | 0.0 | 0.0 | 0.00 | 0.00 | 0.00 | 35 | |
| 20260507100906 | 59 | 248 | 0.0 | 0.0 | 0.00 | 0.00 | 0.00 | 35 | |
| 20260507100408 | 59 | 248 | 0.0 | 0.0 | 0.00 | 0.00 | 0.00 | 35 | |
| 20260507095911 | 59 | 248 | 0.0 | 0.0 | 0.00 | 0.00 | 0.00 | 35 | |
| 20260507095413 | 59 | 248 | 0.0 | 0.0 | 0.00 | 0.00 | 0.00 | 36 | |
| 20260507094915 | 59 | 248 | 0.0 | 0.0 | 0.00 | 0.00 | 0.00 | 36 | |
| 20260507094416 | 58 | 248 | 0.0 | 0.0 | 0.00 | 0.00 | 0.00 | 37 | |
| 20260507093419 | 58 | 248 | 0.0 | 0.0 | 0.00 | 0.00 | 0.00 | 39 | |
| 20260507092922 | 57 | 248 | 0.0 | 0.0 | 0.00 | 0.00 | 0.00 | 39 | |
| 20260507092424 | 57 | 248 | 0.0 | 0.0 | 0.00 | 0.00 | 0.00 | 41 | |
| 20260507091927 | 56 | 248 | 0.0 | 0.0 | 0.00 | 0.00 | 0.00 | 42 | |
| 20260507091425 | 56 | 248 | 0.0 | 0.0 | 0.00 | 0.00 | 0.00 | 44 | |
| 20260507090928 | 55 | 248 | 0.0 | 0.0 | 0.00 | 0.00 | 0.00 | 46 | |
| 20260507090430 | 54 | 248 | 0.0 | 0.0 | 0.00 | 0.00 | 0.00 | 47 | |
| 20260507085932 | 54 | 248 | 0.0 | 0.0 | 0.00 | 0.00 | 0.00 | 50 | |
| 20260507085435 | 54 | 248 | 0.0 | 0.0 | 0.00 | 0.00 | 0.00 | 53 | |
| 20260507084938 | 54 | 248 | 0.0 | 0.0 | 0.00 | 0.00 | 0.00 | 54 | |
| 20260507084436 | 54 | 248 | 0.0 | 0.0 | 0.00 | 0.00 | 0.00 | 56 | |
| 20260507083939 | 54 | 248 | 0.0 | 0.0 | 0.00 | 0.00 | 0.00 | 57 | |
| 20260507083441 | 54 | 248 | 0.0 | 0.0 | 0.00 | 0.00 | 0.00 | 58 | |
| 20260507082943 | 54 | 248 | 0.0 | 0.0 | 0.00 | 0.00 | 0.00 | 59 | |
| 20260507082446 | 54 | 248 | 0.0 | 0.0 | 0.00 | 0.00 | 0.00 | 59 | |
| 20260507081948 | 54 | 248 | 0.0 | 0.0 | 0.00 | 0.00 | 0.00 | 58 | |
| 20260507081447 | 55 | 248 | 0.0 | 0.0 | 0.00 | 0.00 | 0.00 | 57 | |
| 20260507080949 | 55 | 248 | 0.0 | 0.0 | 0.00 | 0.00 | 0.00 | 57 | |
| 20260507080452 | 55 | 248 | 0.0 | 0.0 | 0.00 | 0.00 | 0.00 | 56 | |
| 20260507075954 | 55 | 248 | 0.0 | 0.0 | 0.00 | 0.00 | 0.00 | 56 | |
| 20260507075456 | 55 | 248 | 0.0 | 0.0 | 0.00 | 0.00 | 0.00 | 55 | |
| 20260507074959 | 56 | 248 | 0.0 | 0.0 | 0.00 | 0.00 | 0.00 | 56 | |
| 20260507074458 | 56 | 248 | 0.0 | 0.0 | 0.00 | 0.00 | 0.00 | 56 | |
| 20260507074000 | 55 | 248 | 0.0 | 0.0 | 0.00 | 0.00 | 0.00 | 57 | |
| 20260507073503 | 55 | 248 | 0.0 | 0.0 | 0.00 | 0.00 | 0.00 | 58 | |
| 20260507073005 | 56 | 248 | 0.0 | 0.0 | 0.00 | 0.00 | 0.00 | 58 | |
| 20260507072507 | 56 | 248 | 0.0 | 0.0 | 0.00 | 0.00 | 0.00 | 58 | |
| 20260507072010 | 56 | 248 | 0.0 | 0.0 | 0.00 | 0.00 | 0.00 | 58 | |
| 20260507071509 | 56 | 248 | 0.0 | 0.0 | 0.00 | 0.00 | 0.00 | 58 | |
| 20260507071012 | 56 | 248 | 0.0 | 0.0 | 0.00 | 0.00 | 0.00 | 59 | |
| 20260507070513 | 56 | 248 | 0.0 | 0.0 | 0.00 | 0.00 | 0.00 | 59 | |
| 20260507070016 | 56 | 229 | 3.0 | 2.0 | 0.00 | 0.00 | 0.00 | 60 | |
| 20260507065020 | 56 | 221 | 7.0 | 6.0 | 0.00 | 0.00 | 0.00 | 62 | |
| 20260507064519 | 56 | 229 | 6.0 | 8.0 | 0.00 | 0.00 | 0.00 | 63 | |
| 20260507064022 | 56 | 233 | 7.0 | 0.0 | 0.00 | 0.00 | 0.00 | 64 | |
| 20260507063524 | 56 | 231 | 5.0 | 9.0 | 0.00 | 0.00 | 0.00 | 63 | |
| 20260507063027 | 56 | 248 | 3.0 | 0.0 | 0.00 | 0.00 | 0.00 | 63 | |
| 20260507062529 | 56 | 226 | 1.0 | 0.0 | 0.00 | 0.00 | 0.00 | 63 | |
| 20260507062032 | 56 | 190 | 8.0 | 0.0 | 0.00 | 0.00 | 0.00 | 63 | |
| 20260507061530 | 56 | 211 | 8.0 | 10.0 | 0.00 | 0.00 | 0.00 | 62 | |
| 20260507061033 | 56 | 221 | 6.0 | 7.0 | 0.00 | 0.00 | 0.00 | 61 | |
| 20260507060535 | 56 | 233 | 6.0 | 9.0 | 0.00 | 0.00 | 0.00 | 61 | |
| 20260507060038 | 56 | 235 | 6.0 | 3.0 | 0.00 | 0.00 | 0.00 | 61 | |
| 20260507055540 | 56 | 224 | 0.0 | 0.0 | 0.00 | 0.00 | 0.00 | 61 | |
| 20260507055042 | 56 | 224 | 0.0 | 0.0 | 0.00 | 0.00 | 0.00 | 60 | |
| 20260507054541 | 56 | 224 | 9.0 | 8.0 | 0.00 | 0.00 | 0.00 | 59 | |
| 20260507054043 | 57 | 211 | 8.0 | 3.0 | 0.00 | 0.00 | 0.00 | 58 | |
| 20260507053546 | 57 | 211 | 6.0 | 5.0 | 0.00 | 0.00 | 0.00 | 56 | |
| 20260507053048 | 57 | 243 | 7.0 | 8.0 | 0.00 | 0.00 | 0.00 | 56 | |
| 20260507052550 | 57 | 235 | 7.0 | 6.0 | 0.00 | 0.00 | 0.00 | 54 | |
| 20260507052053 | 57 | 238 | 7.0 | 11.0 | 0.00 | 0.00 | 0.00 | 56 | |
| 20260507051552 | 57 | 235 | 7.0 | 12.0 | 0.00 | 0.00 | 0.00 | 56 | |
| 20260507051055 | 57 | 229 | 9.0 | 11.0 | 0.00 | 0.00 | 0.00 | 56 |